weather.gov     
National Weather Service

Regional Weather Roundup
NWS Homepage
This page is being discontinued on March 12, 2014.
The same data is available at this site. Please update your bookmarks.
Thank you, and we apologize for the inconvenience.
Please send an email to SR-SRH.Webmaster@noaa.gov with any concerns.


Current Version
Previous Version:    01  02  03  04  05  06  07  08  09  10  11  12  13  14  15  16  17  18  19  20  21  22  23  24  25  26  
[Printable]
716
ASUS44 KMOB 011210
RWRMOB
REGIONAL WEATHER ROUNDUP
NATIONAL WEATHER SERVICE MOBILE AL
700 AM CDT SAT NOV 01 2014

NOTE: "FAIR" INDICATES FEW OR NO CLOUDS BELOW 12,000 FEET WITH NO
      SIGNIFICANT WEATHER AND/OR OBSTRUCTIONS TO VISIBILITY.

  * THESE STATIONS ARE PART OF THE UNIVERSITY OF SOUTH ALABAMA
    MESONET AND ARE NOT UNDER NWS OR FAA QUALITY CONTROL.

ALZ061>064-011300-
COASTAL ALABAMA

CITY           SKY/WX    TMP DP  RH WIND       PRES   REMARKS
MOBILE REG APT CLEAR     38  25  59 N12       30.26R
6HR MIN TEMP:  38; 6HR MAX TEMP:  51;

BROOKLEY FIELD CLEAR     41  26  55 N13       30.26R
6HR MIN TEMP:  41; 6HR MAX TEMP:  54;

USA CAMPUS*      N/A    N/A N/A N/A CALM      30.27R
DOG RIVER*     NOT AVBL


CITY           SKY/WX    TMP DP  RH WIND       PRES   REMARKS
MOUNT VERNON*  NOT AVBL
SARALAND*      NOT AVBL
BAY MINETTE*   NOT AVBL
LOXLEY*          N/A    N/A N/A N/A N7        30.24R
ROBERTSDALE*     N/A    N/A N/A N/A NE2       30.23R
FAIRHOPE*        N/A    N/A N/A N/A NW7       30.23R
ELBERTA*         N/A    N/A N/A N/A VRB5      30.22R
FOLEY*           N/A    N/A N/A N/A NW7       30.15S
GRAND BAY*       N/A    N/A N/A N/A NW6       30.24R
DAUPHIN ISLND* NOT AVBL
BON SCOUR NWR* NOT AVBL
GULF SHORES    CLEAR     40  25  53 N8G16     30.23R

$$

ALZ051>060-011300-
INTERIOR SOUTHWEST AND SOUTH CENTRAL ALABAMA

CITY           SKY/WX    TMP DP  RH WIND       PRES   REMARKS
GREENVILLE     CLEAR     38  25  59 NW8G16    30.18
6HR MIN TEMP:  38; 6HR MAX TEMP:  45;

EVERGREEN      CLEAR     39  26  59 NW7       30.21S
6HR MIN TEMP:  39; 6HR MAX TEMP:  49;

CASTLEBERRY*   NOT AVBL
ATMORE*          N/A    N/A N/A N/A N15       30.23R
DIXIE*           N/A    N/A N/A N/A CALM      30.16R
ANDALUSIA/OPP  CLEAR     41  25  53 N13       30.18R
6HR MIN TEMP:  41; 6HR MAX TEMP:  53;

ANDALUSIA*       N/A    N/A N/A N/A W8        30.17R
FLORALA APT    CLEAR     37  26  64 NW6       30.20R
6HR MIN TEMP:  37; 6HR MAX TEMP:  52;

FLORALA*         N/A    N/A N/A N/A NW7       30.15S

$$

FLZ001>006-011300-
WESTERN FLORIDA PANHANDLE

CITY           SKY/WX    TMP DP  RH WIND       PRES   REMARKS
PENSACOLA      CLEAR     40  26  57 N12       30.21R
6HR MIN TEMP:  40; 6HR MAX TEMP:  53;

NAS PENSACOLA  CLEAR     41  25  53 N12       30.22R
6HR MIN TEMP:  40; 6HR MAX TEMP:  54;

MILTON         CLEAR     39  25  57 N14       30.21R
6HR MIN TEMP:  39; 6HR MAX TEMP:  53;

WHTNG S FIELD  CLEAR     40  25  55 N14       30.21R
6HR MIN TEMP:  40; 6HR MAX TEMP:  54;



CITY           SKY/WX    TMP DP  RH WIND       PRES   REMARKS
WALNUT HILL*   NOT AVBL
JAY*             N/A    N/A N/A N/A NW8       30.22R
DUKE FIELD     CLEAR     40  25  56 NW10      30.18R
CRESTVIEW      CLEAR     40  26  57 NW12G20   30.20R
6HR MIN TEMP:  39; 6HR MAX TEMP:  53;

VALPARAISO     CLEAR     41  25  52 N15G22    30.18R
6HR MIN TEMP:  41; 6HR MAX TEMP:  56;

DESTIN         CLEAR     44  28  53 N18G28    30.18R
6HR MIN TEMP:  44; 6HR MAX TEMP:  58;


$$

MSZ076-079-011300-
INTERIOR SOUTHEAST MISSISSIPPI

CITY           SKY/WX    TMP DP  RH WIND       PRES   REMARKS
LEAKESVILLE*     N/A    N/A N/A N/A CALM      30.27R
AGRICOLA*      NOT AVBL

$$

MARINE OBSERVATIONS

STATION/POSITION TIME  TEMP    WIND        PRES    WAVE
                       AIR SEA DIR/SP/G            HT/PER
                 (UTC) (F)     (DEG/KT/KT) (MB)    (FT/S)
PASCAGOULA       1200   43     360/ 14/ 20 1024.3R
PETIT BOIS ISLND 1200   45     360/ 24/ 30 1024.5R
GRAND BAY        1100   42     360/ 10     1024.0S
KATRINA CUT      1100   46      20/ 26     1023.4R
CEDAR POINT      1100   42     360/ 16     1023.4S
E DAUPHIN ISLAND 1054   48     360/ 29/ 33 1023.4R
MIDDLE BAY LIGHT 1100   46     360/ 30       N/A
USCG MOBILE BAY  1200   42 71  360/ 11/ 15 1023.1S
STATE DOCKS      1200   43 71              1024.0R
MEAHER PARK      1100   42     330/ 10     1024.4R
WEEKS BAY        1100   43                   N/A
12 S ORANGE BCH  1200   49 76  360/ 27/ 33 1022.3R   5/ 5
PENSACOLA BAY    1200   43 74  340/  6/ 12 1023.4R
64 S DAUPHIN ISL 1120   54 77   30/ 29/ 37 1023.0R   9/ 7
67 S FORT MORGAN 1100   54                 1021.3R

$$

SELECTED LOCATIONS ACROSS THE REGION

CITY           SKY/WX    TMP DP  RH WIND       PRES   REMARKS
NEW ORLEANS    NOT AVBL
GULFPORT       CLEAR     41  24  51 N13       30.28R
PASCAGOULA AP  CLEAR     38  26  62 N9        30.27R
PASCAGOULA*      N/A    N/A N/A N/A N6        30.26R
HATTIESBURG    CLEAR     38  26  62 NW7       30.32R
LAUREL         CLEAR     36  23  60 N6        30.31R
MERIDIAN       CLEAR     36  23  59 N12       30.30R
JACKSON        CLEAR     36  24  62 N10       30.34R
MONTGOMERY     CLEAR     38  26  62 NW15      30.19R
TROY           CLEAR     37  26  64 NW13      30.16R
KINSTON*       NOT AVBL
GENEVA*          N/A    N/A N/A N/A N5        30.19R
ASHFORD*         N/A    N/A N/A N/A W8        30.17R
DOTHAN         CLEAR     37  26  64 NW12      30.16R
PANAMA CITY    CLEAR     41  26  55 NW13      30.14R

$$





U.S. Dept. of Commerce
NOAA National Weather Service
1325 East West Highway
Silver Spring, MD 20910
E-mail: w-nws.webmaster@noaa.gov
Page last modified: May 16, 2007
NATIONAL WEATHER SERVICE: for Safety, for Work, for Fun - FOR LIFE